Middletown, PA

9:24 AM EST on December 04, 2016 (GMT -0500)
Harrisburg International

Weather History for KMDT - October, 2011

Change the Weather History Date:

Monday, October 3, 2011

  Actual Average Record
Temperature  
Mean Temperature 48 °F 59 °F  
Max Temperature 51 °F 68 °F 88 °F (1919)
Min Temperature 44 °F 49 °F 32 °F (1899)
Degree Days  
Heating Degree Days 17 7  
Month to date heating degree days 49 20  
Since 1 July heating degree days 95 92  
Cooling Degree Days 0 1  
Month to date cooling degree days 0 3  
Year to date cooling degree days 1246 996  
Moisture  
Dew Point 44 °F    
Average Humidity 87    
Maximum Humidity 100    
Minimum Humidity 74    
Precipitation  
Precipitation 0.04 in 0.12 in 2.44 in (1927)
Month to date precipitation 0.65 0.37  
Year to date precipitation 62.47 31.38  
Snow  
Snow 0.00 in 0.00 in 0.00 in (2002)
Month to date snowfall 0.0 0.0  
Since 1 July snowfall 0.0 0.0  
Since 1 September snowfall 0.0 0.0  
Snow Depth 0.00 in    
Sea Level Pressure  
Sea Level Pressure 30.00 in    
Wind  
Wind Speed 2 mph (WNW)    
Max Wind Speed 8 mph    
Max Gust Speed 12 mph    
Visibility 8 miles    
Events Rain    
T = Trace of Precipitation, MM = Missing Value Source: NWS Daily Summary

Daily Weather History Graph

Daily Weather History Graph

Search for Another Location

Airport or City:

Trip Planner

Search our weather history database for the weather conditions in past years. The results will help you decide how hot, cold, wet, or windy it might be!

Date:

Astronomy

Oct. 03, 2011 Rise Set
Actual Time 7:05 AM EDT 6:46 PM EDT
Civil Twilight 6:38 AM EDT 7:13 PM EDT
Nautical Twilight 6:06 AM EDT 7:44 PM EDT
Astronomical Twilight 5:34 AM EDT 8:16 PM EDT
Moon 2:01 PM EDT (10/3) 11:46 PM EDT (10/3)
Length of Visible Light 12h 35m
Length of Day
11h 41m
Waxing Crescent, 45% of the Moon is Illuminated
Oct 3
Waxing Crescent
Oct 3
First Quarter
Oct 11
Full
Oct 19
Last Quarter
Oct 26
New

Hourly Weather History & Observations

Time (EDT) Temp. Windchill Dew Point Humidity Pressure Visibility Wind Dir Wind Speed Gust Speed Precip Events Conditions
12:56 AM 46.0 °F - 43.0 °F 89% 29.91 in 3.0 mi Calm Calm - 0.00 in Rain Light Rain
1:56 AM 45.0 °F 41.2 °F 43.0 °F 93% 29.92 in 7.0 mi NNW 6.9 mph - 0.00 in   Overcast
2:32 AM 44.6 °F 40.7 °F 42.8 °F 93% 29.91 in 10.0 mi West 6.9 mph - N/A   Overcast
2:56 AM 45.0 °F 41.8 °F 42.1 °F 90% 29.92 in 10.0 mi NW 5.8 mph - N/A   Overcast
3:41 AM 44.6 °F 41.4 °F 42.8 °F 93% 29.92 in 10.0 mi NW 5.8 mph - N/A   Overcast
3:56 AM 45.0 °F 41.2 °F 42.1 °F 90% 29.92 in 8.0 mi WNW 6.9 mph - N/A   Overcast
4:20 AM 44.6 °F 43.1 °F 42.8 °F 93% 29.93 in 8.0 mi West 3.5 mph - 0.00 in   Overcast
4:37 AM 44.6 °F - 42.8 °F 93% 29.93 in 6.0 mi Calm Calm - 0.00 in Rain Light Rain
4:56 AM 45.0 °F - 42.1 °F 90% 29.94 in 3.0 mi Calm Calm - 0.01 in Rain Light Rain
5:04 AM 44.6 °F - 42.8 °F 93% 29.94 in 3.0 mi Calm Calm - 0.00 in   Overcast
5:22 AM 44.6 °F - 42.8 °F 93% 29.95 in 3.0 mi Calm Calm - 0.00 in   Overcast
5:36 AM 44.6 °F 42.2 °F 42.8 °F 93% 29.95 in 3.0 mi NW 4.6 mph - 0.00 in   Overcast
5:56 AM 45.0 °F - 43.0 °F 93% 29.97 in 3.0 mi Calm Calm - 0.00 in Rain Light Rain
6:56 AM 45.0 °F - 43.0 °F 93% 29.98 in 10.0 mi Calm Calm - 0.01 in   Overcast
7:14 AM 44.6 °F 43.1 °F 42.8 °F 93% 29.97 in 10.0 mi West 3.5 mph - N/A   Overcast
7:51 AM 46.4 °F - 42.8 °F 87% 29.98 in 10.0 mi Calm Calm - N/A Rain Light Rain
7:56 AM 46.0 °F - 43.0 °F 89% 29.99 in 10.0 mi Calm Calm - 0.00 in Rain Light Rain
8:12 AM 46.4 °F - 42.8 °F 87% 29.99 in 10.0 mi Calm Calm - 0.00 in   Overcast
8:56 AM 46.9 °F - 42.1 °F 83% 30.01 in 10.0 mi Calm Calm - 0.00 in   Overcast
9:56 AM 46.9 °F - 43.0 °F 86% 30.03 in 10.0 mi Calm Calm - N/A   Overcast
10:56 AM 48.2 °F - 44.6 °F 87% 30.03 in 10.0 mi Calm Calm - N/A   Overcast
11:45 AM 48.2 °F - 42.8 °F 82% 30.03 in 10.0 mi Calm Calm - N/A   Overcast
11:56 AM 48.9 °F - 44.1 °F 83% 30.04 in 10.0 mi Calm Calm - N/A   Overcast
12:35 PM 51.8 °F - 44.6 °F 76% 30.03 in 10.0 mi SSE 3.5 mph - N/A   Mostly Cloudy
12:44 PM 50.0 °F - 44.6 °F 82% 30.03 in 10.0 mi SE 3.5 mph - N/A   Overcast
12:56 PM 50.0 °F - 44.6 °F 82% 30.03 in 9.0 mi SSE 3.5 mph - N/A   Overcast
1:56 PM 50.0 °F - 43.0 °F 77% 30.04 in 7.0 mi East 3.5 mph - N/A   Overcast
2:56 PM 50.0 °F - 45.0 °F 83% 30.05 in 6.0 mi Calm Calm - 0.00 in Rain Light Rain
3:10 PM 50.0 °F - 44.6 °F 82% 30.04 in 6.0 mi Calm Calm - 0.00 in Rain Light Rain
3:56 PM 50.0 °F - 45.0 °F 83% 30.05 in 4.0 mi Calm Calm - 0.01 in Rain Light Rain
4:56 PM 50.0 °F - 46.9 °F 89% 30.05 in 6.0 mi Calm Calm - 0.01 in Rain Light Rain
5:56 PM 50.0 °F - 46.0 °F 86% 30.06 in 9.0 mi Calm Calm - 0.00 in   Overcast
6:56 PM 50.0 °F - 46.0 °F 86% 30.07 in 8.0 mi Calm Calm - 0.00 in Rain Light Rain
7:56 PM 50.0 °F - 46.9 °F 89% 30.07 in 9.0 mi Calm Calm - 0.00 in   Mostly Cloudy
8:56 PM 48.9 °F - 46.9 °F 93% 30.08 in 6.0 mi Calm Calm - N/A   Mostly Cloudy
9:56 PM 50.0 °F - 46.9 °F 89% 30.09 in 10.0 mi Calm Calm - N/A   Overcast
10:56 PM 50.0 °F - 46.0 °F 86% 30.09 in 10.0 mi Calm Calm - N/A   Overcast
11:56 PM 48.9 °F - 48.0 °F 97% 30.10 in 6.0 mi NW 4.6 mph - N/A   Overcast